Location: Newark
(30.0333°N, 31.2167°E)
Time: 00:03:21
(UTC+00:00)

Tiros 1 despin weight - All Passes

Search period start: 20 January 2020 00:00
Search period end: 30 January 2020 00:00
Orbit: 593 x 643 km, 48.2° (Epoch: 19 January)

Date Brightness Start Highest point End Pass type
(mag) Time Alt. Az. Time Alt. Az. Time Alt. Az.
20 Jan - 08:23:18 10° SE 08:23:46 10° SE 08:24:14 10° ESE daylight
20 Jan - 10:00:15 10° SW 10:04:45 89° SSE 10:09:21 10° NE daylight
20 Jan - 11:43:38 10° WNW 11:46:48 18° NNW 11:50:00 10° NNE daylight
20 Jan - 15:12:18 10° N 15:13:27 11° NNE 15:14:36 10° NNE daylight
20 Jan - 16:51:50 10° NNW 16:56:08 35° NE 17:00:25 10° E visible
20 Jan - 18:33:26 10° WNW 18:37:40 34° SW 18:41:53 10° SSE visible
21 Jan - 08:36:24 10° S 08:40:01 24° SE 08:43:41 10° ENE daylight
21 Jan - 10:17:03 10° WSW 10:21:21 43° NW 10:25:45 10° NE daylight
21 Jan - 12:02:06 10° NW 12:03:52 12° NNW 12:05:39 10° N daylight
21 Jan - 15:27:43 10° NNW 15:30:35 16° NNE 15:33:26 10° ENE daylight
21 Jan - 17:08:07 10° NW 17:12:48 69° NE 17:17:28 10° SE visible
21 Jan - 18:51:14 10° W 18:53:57 15° SW 18:56:42 10° SSW visible
22 Jan - 08:51:59 10° SSW 08:56:22 56° SE 09:00:50 10° ENE daylight
22 Jan - 10:34:28 10° W 10:38:09 24° NNW 10:41:53 10° NNE daylight
22 Jan - 15:43:39 10° NNW 15:47:32 25° NNE 15:51:25 10° E visible
22 Jan - 17:24:44 10° WNW 17:29:18 55° SW 17:33:53 10° SSE visible
23 Jan - 07:29:14 10° SSE 07:31:46 15° SE 07:34:18 10° E daylight
23 Jan - 09:08:25 10° WSW 09:12:52 66° NW 09:17:25 10° NE daylight
23 Jan - 10:52:30 10° WNW 10:55:07 15° NNW 10:57:46 10° NNE daylight
23 Jan - 14:19:50 10° N 14:21:49 12° NNE 14:23:49 10° NE daylight
23 Jan - 15:59:48 10° NW 16:04:18 45° NE 16:08:48 10° ESE visible
23 Jan - 17:41:52 10° WNW 17:45:40 25° SW 17:49:28 10° S visible
24 Jan - 07:44:01 10° SSW 07:48:03 34° SE 07:52:07 10° ENE daylight
24 Jan - 09:25:30 10° W 09:29:33 33° NNW 09:33:41 10° NNE daylight
24 Jan - 11:11:43 10° NNW 11:12:15 10° NNW 11:12:48 10° N daylight
24 Jan - 14:35:33 10° NNW 14:38:52 19° NNE 14:42:12 10° ENE daylight
24 Jan - 16:16:13 10° NW 16:20:54 87° SW 16:25:35 10° SE visible
24 Jan - 18:00:59 10° WSW 18:01:56 11° SW 18:02:53 10° SW visible
25 Jan - 08:00:01 10° SW 08:04:27 79° SE 08:08:59 10° NE daylight
25 Jan - 09:43:10 10° WNW 09:46:25 19° NNW 09:49:44 10° NNE daylight
25 Jan - 13:12:44 10° NNE 13:13:01 10° NNE 13:13:17 10° NNE daylight
25 Jan - 14:51:35 10° NNW 14:55:45 32° NNE 14:59:56 10° E daylight
25 Jan - 16:33:00 10° WNW 16:37:21 39° SW 16:41:42 10° SSE visible
26 Jan - 06:36:25 10° S 06:39:46 21° SE 06:43:08 10° E daylight
26 Jan - 08:16:43 10° WSW 08:21:02 48° NW 08:25:26 10° NE daylight
26 Jan - 10:01:31 10° NW 10:03:28 12° NNW 10:05:25 10° N daylight
26 Jan - 13:27:34 10° NNW 13:30:10 15° NNE 13:32:46 10° ENE daylight
26 Jan - 15:07:49 10° NW 15:12:27 61° NE 15:17:05 10° ESE daylight
26 Jan - 16:50:33 10° W 16:53:40 18° SW 16:56:46 10° S visible
27 Jan - 06:51:50 10° SSW 06:56:06 48° SE 07:00:26 10° ENE daylight
27 Jan - 08:34:02 10° W 08:37:47 26° NNW 08:41:35 10° NNE daylight
27 Jan - 13:43:25 10° NNW 13:47:08 23° NNE 13:50:51 10° E daylight
27 Jan - 15:24:22 10° NW 15:28:58 63° SW 15:33:36 10° SE daylight
28 Jan - 05:29:33 10° SSE 05:31:31 13° SE 05:33:29 10° E daylight
28 Jan - 07:08:09 10° SW 07:12:34 75° NW 07:17:05 10° NE daylight
28 Jan - 08:51:59 10° WNW 08:54:44 16° NNW 08:57:30 10° NNE daylight
28 Jan - 12:19:48 10° N 12:21:23 12° NNE 12:22:59 10° NE daylight
28 Jan - 13:59:32 10° NW 14:03:55 41° NE 14:08:21 10° ESE daylight
28 Jan - 15:41:24 10° WNW 15:45:22 28° SW 15:49:20 10° S daylight
29 Jan - 05:43:57 10° SSW 05:47:47 29° SE 05:51:40 10° ENE daylight
29 Jan - 07:25:07 10° WSW 07:29:13 36° NW 07:33:23 10° NNE daylight
29 Jan - 09:10:56 10° NNW 09:11:50 10° NNW 09:12:44 10° N daylight
29 Jan - 12:35:22 10° NNW 12:38:28 17° NNE 12:41:34 10° ENE daylight
29 Jan - 14:15:53 10° NW 14:20:33 84° NE 14:25:14 10° SE daylight
29 Jan - 15:59:46 10° WSW 16:01:38 12° SW 16:03:31 10° SSW visible
